EW5472 Weather Reports


Display with metric or nautical units.
time (UTC)temp
F
wind
direction
speed
MPH
gust
MPH
rain 1hr
in
rain 24hr
in
rain mn
in
humidity
%
barometer
mb
20260505073049 45 132 0.0 0.0 0.00 0.00 0.00 72 1000.9
20260505071532 46 53 0.0 3.0 0.00 0.00 0.00 71 1001.0
20260505070029 46 52 0.0 0.0 0.00 0.00 0.00 68 1001.6
20260505064527 46 52 0.0 0.0 0.00 0.00 0.00 65 1001.6
20260505063027 47 52 0.0 2.0 0.00 0.00 0.00 63 1001.7
20260505061525 47 52 0.0 0.0 0.00 0.00 0.00 62 1001.9
20260505060024 47 52 0.0 0.0 0.00 0.00 0.00 61 1002.0
20260505054537 48 51 0.0 5.0 0.00 0.00 0.00 59 1001.8
20260505053026 49 43 1.0 7.0 0.00 0.00 0.00 56 1001.8
20260505051523 50 44 0.0 3.0 0.00 0.00 0.00 54 1001.6
20260505041546 54 240 0.0 0.0 0.00 0.00 0.00 39 1000.9
20260505040037 54 240 0.0 1.0 0.00 0.00 0.00 39 1000.6
20260505034534 53 240 0.0 0.0 0.00 0.00 0.00 41 1000.5
20260505033012 53 239 0.0 0.0 0.00 0.00 0.00 40 999.9
20260505031507 54 239 0.0 9.0 0.00 0.00 0.00 39 999.6
20260505030049 55 261 0.0 9.0 0.00 0.00 0.00 39 999.6
20260505024549 56 238 0.0 7.0 0.00 0.00 0.00 35 999.5
20260505023031 57 255 6.0 15.0 0.00 0.00 0.00 34 999.4
20260505021533 58 286 2.0 11.0 0.00 0.00 0.00 31 999.0
20260505020014 58 283 0.0 4.0 0.00 0.00 0.00 31 998.8
20260505014515 58 256 1.0 7.0 0.00 0.00 0.00 29 998.7
20260505013053 58 252 0.0 3.0 0.00 0.00 0.00 30 998.9
20260505011557 58 225 0.0 15.0 0.00 0.00 0.00 30 999.0
20260505010055 59 237 0.0 8.0 0.00 0.00 0.00 30 999.0
20260505004540 60 239 2.0 11.0 0.00 0.00 0.00 28 999.0
20260505003039 59 240 2.0 11.0 0.00 0.00 0.00 32 999.1
20260505001538 58 225 12.0 22.0 0.00 0.00 0.00 33 999.2
20260505000048 60 238 7.0 16.0 0.00 0.00 0.00 28 999.2
20260504234537 60 225 1.0 10.0 0.00 0.00 0.00 29 999.3
20260504233035 60 223 4.0 16.0 0.00 0.00 0.00 29 999.8
20260504231534 61 223 10.0 22.0 0.00 0.00 0.00 27 999.3
20260504230017 62 225 14.0 25.0 0.00 0.00 0.00 26 999.1
20260504224517 63 198 0.0 0.0 0.00 0.00 0.00 20 999.0
20260504223058 63 198 0.0 0.0 0.00 0.00 0.00 19 999.0
20260504221557 64 200 0.0 0.0 0.00 0.00 0.00 19 998.9
20260504220046 65 201 0.0 0.0 0.00 0.00 0.00 17 999.1
20260504214537 66 202 0.0 0.0 0.00 0.00 0.00 19 999.2
20260504213017 67 205 0.0 9.0 0.00 0.00 0.00 18 999.5
20260504211514 65 236 0.0 2.0 0.00 0.00 0.00 20 999.7
20260504210101 64 294 0.0 1.0 0.00 0.00 0.00 18 999.8
20260504204602 64 270 0.0 1.0 0.00 0.00 0.00 19 999.9
20260504203035 64 267 0.0 0.0 0.00 0.00 0.00 18 1000.1
20260504201533 65 267 0.0 0.0 0.00 0.00 0.00 18 1000.2
20260504200015 65 225 0.0 0.0 0.00 0.00 0.00 18 1000.4
20260504194515 66 231 0.0 4.0 0.00 0.00 0.00 18 1000.6
20260504193104 63 32 0.0 0.0 0.00 0.00 0.00 20 1000.8
20260504191553 64 56 1.0 10.0 0.00 0.00 0.00 19 1000.9
20260504190034 62 38 0.0 4.0 0.00 0.00 0.00 23 1001.2
20260504184528 62 222 0.0 14.0 0.00 0.00 0.00 21 1001.6
20260504183009 62 232 1.0 8.0 0.00 0.00 0.00 22 1001.9
20260504181511 61 294 0.0 1.0 0.00 0.00 0.00 20 1002.0
20260504180127 61 342 0.0 0.0 0.00 0.00 0.00 18 1002.0
20260504174547 61 330 0.0 0.0 0.00 0.00 0.00 20 1001.9
20260504173030 61 302 0.0 0.0 0.00 0.00 0.00 22 1002.0
20260504171527 61 302 0.0 0.0 0.00 0.00 0.00 22 1002.1
20260504081504 44 180 0.0 0.0 0.00 0.00 0.00 38 1005.4